Regional Weather Roundup
Issued by NWS Portland, ME

Home | Current Version | Previous Version | Text Only | Print | Product List | Glossary On
Versions: 1 2 3 4 5 6 7 8 9 10 11 12 13 14 15 16 17 18 19 20 21 22 23 24 25 26 27 28 29 30 31 32 33 34 35 36 37 38 39 40 41 42 43 44 45 46 47 48 49 50
000
ASUS41 KGYX 251210
RWRGYX
WEATHER ROUNDUP FOR MAINE AND NEW HAMPSHIRE
NATIONAL WEATHER SERVICE GRAY ME
800 AM EDT SAT OCT 25 2014

MEZ002-005-006-010-012-015-018-020-021-024-026-027-029-251300-
MAINE

CITY           SKY/WX    TMP DP  RH WIND       PRES   REMARKS
PORTLAND       CLEAR     44  40  85 CALM      29.71R
6HR MIN TEMP:  42; 6HR MAX TEMP:  50;

SANFORD        MOCLDY    45  37  76 CALM      29.72R
BAR HARBOR     CLOUDY    45  43  93 NW5       29.65S
WISCASSET      CLOUDY    43  41  93 CALM      29.71R
6HR MIN TEMP:  41; 6HR MAX TEMP:  48;

ROCKLAND       MOCLDY    39  37  93 W5        29.67S
FRYEBURG       CLEAR     38  37  97 CALM      29.70R
6HR MIN TEMP:  36; 6HR MAX TEMP:  45;

LEWISTONAUBURN CLOUDY    43  36  75 CALM      29.70R
AUGUSTA        CLOUDY    45  35  68 SW3       29.69R
6HR MIN TEMP:  43; 6HR MAX TEMP:  48;

WATERVILLE     MOCLDY    43  34  70 W3        29.66R
BANGOR         CLOUDY    44  39  82 W5        29.66S
6HR MIN TEMP:  43; 6HR MAX TEMP:  46; 6HR PCP: TRACE;

GREENVILLE     NOT AVBL
MILLINOCKET    PTCLDY    44  35  70 NW7       29.65R
6HR MIN TEMP:  43; 6HR MAX TEMP:  45;

HOULTON        CLOUDY    41  38  89 N3        29.63R
6HR MIN TEMP:  41; 6HR MAX TEMP:  42;

PRESQUE ISLE   MOCLDY    43  36  75 NE9       29.64R
6HR MIN TEMP:  41; 6HR MAX TEMP:  43;

FRENCHVILLE    CLOUDY    39  32  76 CALM      29.63R
6HR MIN TEMP:  37; 6HR MAX TEMP:  39;

CARIBOU        CLOUDY    41  37  86 NE5       29.64R
6HR MIN TEMP:  40; 6HR MAX TEMP:  42;

$$

NHZ002-005-008-009-011-012-014-251300-
NEW HAMPSHIRE

CITY           SKY/WX    TMP DP  RH WIND       PRES   REMARKS
PORTSMOUTH     MOCLDY    47  38  70 W7        29.71S
ROCHESTER      PTCLDY    47  38  71 CALM      29.71S
6HR MIN TEMP:  43; 6HR MAX TEMP:  47;

NASHUA         PTCLDY    41  39  92 CALM      29.76S
MANCHESTER     PTCLDY    46  36  68 SW6       29.73S
6HR MIN TEMP:  41; 6HR MAX TEMP:  50;

CONCORD        PTCLDY    37  35  92 NE3       29.75R
6HR MIN TEMP:  34; 6HR MAX TEMP:  48;

LACONIA        PTCLDY    45  36  70 SW3       29.71S
PLYMOUTH       FAIR      47  40  76 W7        29.72S
BERLIN         CLEAR     32  32 100 CALM      29.73R
6HR MIN TEMP:  30; 6HR MAX TEMP:  41;

WHITEFIELD     FOG       33  32  96 CALM      29.76S VSB 3/4
6HR MIN TEMP:  31; 6HR MAX TEMP:  42;

JAFFREY        MOCLDY    42  37  82 S5        29.76F
6HR MIN TEMP:  35; 6HR MAX TEMP:  46;

LEBANON        FOG       36  34  92 CALM      29.77S VSB<1/4
6HR MIN TEMP:  33; 6HR MAX TEMP:  39;

MT WASHINGTON  PTCLDY    32  23  69 NW40        N/A  WCI  16
6HR MIN TEMP:  27; 6HR MAX TEMP:  32;

$$

VTZ005-007-008-251300-
VERMONT

CITY           SKY/WX    TMP DP  RH WIND       PRES   REMARKS
ST JOHNSBURY     N/A     33  33 100 MISG      29.76S
MONTPELIER     PTCLDY    32  31  96 CALM      29.78F
BURLINGTON     MOCLDY    36  34  92 E3        29.78S
$$

MAZ007-012-024-CTZ003-RIZ002-NYZ038-NYZ072-251300-
SOUTHERN NEW ENGLAND AND NY

CITY           SKY/WX    TMP DP  RH WIND       PRES   REMARKS
BOSTON         PTCLDY    49  40  71 W8        29.76
WORCESTER      MOCLDY    43  38  82 W12       29.77R
NANTUCKET      CLEAR     50  46  86 W7        29.78R
PROVIDENCE     PTCLDY    46  40  79 W7        29.80S
HARTFORD       MOCLDY    43  38  82 SW5       29.82R
ALBANY         PTCLDY    40  37  89 CALM      29.84S
NEW YORK CITY  PTCLDY    52  37  56 W7        29.86S
$$

ANZ081-ANZ082-ANZ150-NHZ014-MEZ023>029-251300-
COASTAL MARINE OBSERVATIONS

STATION/POSITION TIME  TEMP    WIND        PRES    WAVE
                       AIR SEA DIR/SP/G            HT/PER
                 (UTC) (F)     (DEG/KT/KT) (MB)    (FT/S)
MOUNT DESERT ROC 1100   48                 1003.4S
MATINICUS ROCK   1200          330/ 13/ 15 1004.5R
PORTLAND WX BUOY 1150   51 53  240/  8/ 10 1005.9R   3/ 9
WELLS            1100   46 50  270/  2/  4 1005.2S
ISLE OF SHOALS   1200   49     270/ 13/ 14 1006.0R
JEFFREYS LEDGE   1121      56                N/A     4/ 9
CASHES LEDGE BUO 1150   53 54  330/ 14/ 17 1005.0R   4/ 9
$$

.............KEY..............
   WCI - WIND CHILL
   TC  - TEMPERATURE IN CELSIUS
   VSB - VISIBILITY IN MILES
   HX  - HEAT INDEX
   FAIR- INDICATES FEW OR NO CLOUDS BELOW 12,000 FT, WITH NO
         SIGNIFICANT WEATHER AND/OR OBSTRUCTIONS TO VISIBILITY.





USA.gov is the U.S. government's official web portal to all federal, state and local government web resources and services.